Location: *
(50.2903°S, 172.5375°W)
Time: 23:57:34
(UTC+00:00)

Cosmos 921 Rocket - Pass Details

Date: 17 November 2019
Orbit: 572 x 631 km, 75.8° (Epoch: 10 December)

Event Time Altitude Azimuth Distance (km) Brightness Sun altitude
Exits shadow 12:35:15 36° 310° (NW) 986 3.6 -18.5°
Maximum altitude 12:36:52 61° 246° (WSW) 717 3.3 -18.4°
Drops below altitude 10° 12:41:23 10° 165° (SSE) 2,036 7.0 -18.2°
Sets 12:43:42 0° 161° (SSE) 2,957 8.3 -18.0°
